SCP
0 -0 -0 -0 -0 0 0 0 0 0 0 -0 -0 -0 -0 -0 -0 -0 -0 -0 0 0 0 0 0 0 0 0 0 0 0 0 0 0 0 0 0 0 0 0 0 0 0 0 0 0 0
0 0 -0 -0 0 0 0 0 0 0 0 0 0 0 0 0 0 0 0 0 0 0 0 0 0 0 0 0 0 0 0 0 0 0 0 0 0 0 0 0 0 0 0 0 0 0 0
-0 0 0 -0 -0 -0 -0 0 0 0 0 0 0 0 0 0 0 0 0 0 0 0 0 0 0 0 0 0 0 0 0 0 0 0 0 0 0 0 0 0 0 0 0 0 0 0 0
0 0 0 0 0 0 0 0 0 0 0 0 0 0 0 0 0 0 0 0 0 0 0 0 0 0 0 0 0 0 0 0 0 0 0 0 0 0 0 0 0 0 0 0 0 0 0
0 0 0 0 0 0 0 0 0 0 0 0 0 0 0 0 0 0 0 0 -0 0 0 0 0 0 0 0 0 0 0 0 0 0 0 0 0 0 0 0 0 0 0 0 0 0 0
0 0 0 0 0 0 0 0 0 0 0 0 0 0 0 0 0 0 0 0 0 0 0 0 0 0 0 0 0 0 0 0 0 0 0 0 0 0 0 0 0 0 0 0 0 0 0
0 0 0 0 0 0 0 0 0 0 0 0 0 0 0 0 0 0 0 -0 -0 0 0 0 0 0 0 0 0 0 0 0 0 0 0 0 0 0 0 0 0 0 0 0 0 0 0
0 0 0 0 0 0 0 0 0 0 0 0 0 0 0 0 0 0 -0 -0 -0 -0 -0 0 0 0 0 0 0 0 0 0 0 0 0 0 0 0 0 0 0 0 0 0 0 0 0
0 0 0 0 0 0 0 0 0 0 0 0 0 0 0 0 0 0 -0 -0 -0 -0 0 0 0 0 0 0 0 0 0 0 0 0 0 0 0 0 0 0 0 0 0 0 0 0 0
0 0 0 0 0 0 0 0 0 0 0 0 0 0 0 0 0 0 -0 -0 -0 0 0 0 0 0 0 0 0 0 0 0 0 0 0 0 0 0 0 0 0 0 0 0 0 0 0
0 0 0 0 0 0 0 0 0 0 0 0 0 0 0 0 0 0 0 0 0 0 0 0 0 0 0 0 0 0 0 0 0 0 0 0 0 0 0 0 0 0 0 0 0 0 0
0 0 0 0 0 0 0 0 0 0 0 0 0 0 0 0 0 0 0 0 0 0 0 0 0 0 0 0 0 0 0 0 0 0 0 0 0 0 0 0 0 0 0 0 0 0 0
0 0 0 0 0 0 0 0 0 0 0 0 0 0 0 0 0 0 0 0 0 0 0 0 0 0 0 0 0 0 0 0 0 0 0 0 0 0 0 0 0 0 0 0 0 0 0
0 0 0 0 0 0 0 0 0 0 0 0 0 0 0 0 0 0 0 0 0 0 0 0 0 0 0 0 0 0 0 0 0 0 0 0 0 0 0 0 0 0 0 0 0 0 0
0 0 0 0 0 0 0 0 0 0 0 0 0 0 0 0 0 0 0 0 0 0 0 0 0 0 0 0 0 0 0 0 0 0 0 0 0 0 0 0 0 0 0 0 0 0 0
0 0 0 0 0 0 0 0 0 0 0 0 0 0 0 0 0 0 0 0 0 0 0 0 0 0 0 0 0 0 0 0 0 0 0 0 0 0 0 0 0 0 0 0 0 0 0
0 0 0 0 0 0 0 0 0 0 0 0 0 0 0 0 0 0 0 0 0 0 0 0 0 0 0 0 0 0 0 0 0 0 0 0 0 0 0 0 0 0 0 0 0 0 0
0 0 0 0 0 0 0 0 0 0 0 0 0 0 0 0 0 0 0 0 0 0 0 0 0 0 0 0 0 0 0 0 0 0 0 0 0 0 0 0 0 0 0 0 0 0 0
0 0 0 0 0 0 0 0 0 0 0 0 0 0 0 0 0 0 0 0 0 0 0 0 0 0 0 0 0 0 0 0 0 0 0 0 0 0 0 0 0 0 0 0 0 0 0
0 0 0 0 0 0 0 0 0 0 0 0 0 0 0 0 0 0 0 0 0 0 0 0 0 0 0 0 0 0 0 0 0 0 0 0 0 0 0 0 0 0 0 0 0 0 0
0 0 0 0 0 0 0 0 0 0 0 0 0 0 0 0 0 0 0 0 0 0 0 0 0 0 0 0 0 0 0 0 0 0 0 0 0 0 0 0 0 0 0 0 0 0 0
0 0 0 0 0 0 0 0 0 0 0 0 0 0 0 0 0 0 0 0 0 0 0 0 0 0 0 0 0 0 0 0 0 0 0 0 0 0 0 0 0 0 0 0 0 0 0
0 0 0 0 0 0 0 0 0 0 0 0 0 0 0 0 0 0 0 0 0 0 0 0 0 0 0 0 0 0 0 0 0 0 0 0 0 0 0 0 0 0 0 0 0 0 0
0 0 0 0 0 0 0 0 0 0 0 0 0 0 0 0 0 0 0 0 0 0 0 0 0 0 0 0 0 0 0 0 0 0 0 0 0 0 0 0 0 0 0 0 0 0 0
0 0 0 0 0 0 0 0 0 0 0 0 0 0 0 0 0 0 0 0 0 0 0 0 0 0 0 0 0 0 0 0 0 0 0 0 0 0 0 0 0 0 0 0 0 0 0
0 0 0 0 0 0 0 0 0 0 0 0 0 0 0 0 0 0 0 0 0 0 0 0 0 0 0 0 0 0 0 0 0 0 0 0 0 0 0 0 -0 0 0 0 0 0 0
0 0 0 0 0 0 0 0 0 0 0 0 0 0 0 0 0 0 0 0 0 0 0 0 0 0 0 0 0 0 0 0 0 0 0 0 0 0 0 0 -0 0 0 0 0 0 0
0 0 0 0 0 0 0 0 0 0 0 0 0 0 0 0 0 0 0 0 0 0 0 0 0 0 0 0 0 0 0 0 0 0 0 0 0 0 0 0 0 0 0 0 0 0 0
0 0 0 0 0 0 0 0 0 0 0 0 0 0 0 0 0 0 0 0 0 0 0 0 0 0 0 0 0 0 0 0 0 0 0 -0 0 0 -0 0 0 0 0 0 0 -0 0
Wind_Speed_500mb
23 25 25 25 23 25 28 27 24 25 27 30 33 35 38 41 43 47 48 47 46 45 44 41 34 26 21 8 8 11 10 7 6 10 15 18 21 12 5 7 6 9 9 14 21 25 29
24 28 31 31 28 29 32 31 29 29 28 30 33 37 41 44 45 47 49 48 45 44 44 37 31 21 14 5 8 12 11 7 4 8 15 21 14 17 7 10 9 10 13 19 24 31 24
25 26 28 29 27 29 31 32 31 31 29 30 35 38 42 44 47 49 52 52 47 42 36 30 24 17 15 14 11 14 11 6 6 6 11 18 11 9 3 5 7 10 12 14 13 6 5
25 24 27 26 27 29 31 33 32 36 35 35 37 39 44 47 50 53 54 55 53 39 28 24 18 15 5 5 10 12 11 7 8 6 1 4 15 5 4 2 10 9 4 7 9 11 6
26 25 25 26 27 31 30 29 30 32 36 39 38 38 43 47 50 53 53 57 44 36 24 21 16 8 2 2 4 6 5 2 1 5 9 7 9 2 4 5 8 4 12 5 11 8 8
27 25 25 26 28 30 32 31 32 32 34 37 37 37 42 47 48 53 55 57 48 17 24 22 7 7 5 4 2 5 7 7 2 6 8 6 4 5 4 4 10 6 8 5 7 8 19
29 28 27 26 27 28 29 31 31 31 34 35 37 35 37 42 45 49 60 51 44 8 54 16 27 23 34 14 11 10 16 13 9 6 5 4 3 9 19 11 3 1 6 21 14 21 15
31 30 28 28 28 27 28 29 30 31 31 33 36 39 41 42 44 40 45 39 27 21 28 34 17 19 19 29 10 3 5 10 9 8 6 4 11 15 11 9 11 11 13 21 18 17 8
31 31 30 29 30 31 31 31 32 31 31 34 38 40 39 40 33 36 35 35 32 28 11 15 13 11 11 7 4 8 3 7 5 8 9 14 7 7 8 7 12 12 17 11 21 9 10
30 30 29 26 28 31 31 34 34 29 28 32 38 40 38 37 18 30 24 29 32 27 8 9 7 3 4 3 6 4 4 4 1 8 9 8 7 8 8 10 15 13 16 26 16 6 9
31 30 27 26 30 30 33 37 37 29 29 35 41 40 36 31 22 19 19 25 28 13 10 2 3 3 2 3 4 3 3 7 8 8 7 8 2 2 7 7 8 11 7 7 8 8 5
27 29 30 30 28 35 32 32 35 27 30 35 38 34 30 27 22 14 19 21 18 8 13 2 4 7 3 5 4 7 3 4 5 3 3 8 2 2 4 5 5 6 6 1 2 4 16
35 34 34 35 32 36 38 31 34 38 41 39 38 33 33 27 17 11 12 12 9 6 13 7 6 7 3 4 3 6 4 1 7 1 6 3 5 4 1 4 2 3 5 6 9 8 17
36 37 35 35 32 36 41 39 34 41 40 34 33 33 29 29 15 7 5 9 6 7 10 5 4 4 10 4 5 1 2 5 5 6 5 9 20 11 2 3 3 4 8 10 13 9 9
19 22 23 22 25 28 28 29 29 30 32 33 32 31 31 23 16 7 7 5 13 12 4 7 9 5 5 5 4 5 7 9 10 14 15 11 10 1 3 3 2 5 6 5 4 5 7
15 17 19 20 24 25 26 27 25 28 28 33 29 23 26 26 12 13 3 10 10 9 2 5 5 7 5 4 4 4 6 6 7 11 4 3 7 3 3 0 5 5 5 5 5 7 10
20 21 22 25 27 28 29 29 32 31 34 34 16 10 10 17 19 11 6 12 9 13 8 6 7 11 13 15 11 11 10 5 8 7 8 4 4 1 2 2 2 1 3 10 3 6 7
19 21 22 23 25 28 32 34 35 32 30 22 10 3 7 27 6 7 7 8 8 7 7 12 8 15 25 31 35 23 14 8 10 12 9 5 4 3 1 3 7 4 2 5 9 11 2
20 21 22 22 23 26 29 30 30 23 9 11 8 12 17 38 7 6 7 6 9 7 11 6 6 2 3 5 9 5 7 12 5 4 6 8 4 3 9 1 2 3 2 2 7 5 8
21 22 22 22 21 21 23 23 13 8 12 24 7 1 8 24 5 4 4 8 8 5 4 7 2 4 1 6 1 7 6 4 15 7 14 16 4 10 9 4 6 5 7 5 6 4 4
21 21 22 21 18 17 16 17 11 9 14 21 5 1 4 3 8 9 4 8 1 5 0 4 3 13 8 7 6 11 12 6 11 11 7 7 12 12 6 3 4 6 11 16 12 8 12
21 20 21 22 20 20 17 10 10 9 11 13 4 2 4 4 4 3 12 7 9 12 8 8 14 8 17 13 16 8 10 8 8 13 12 6 5 2 5 4 4 16 20 20 23 19 21
30 25 23 22 20 19 19 19 17 14 11 3 4 5 3 9 6 3 9 12 9 4 22 22 17 5 13 31 24 19 21 12 7 10 9 8 9 6 5 4 8 12 15 28 9 9 9
24 20 20 20 19 18 19 19 17 17 18 13 13 14 3 7 7 8 7 12 11 22 23 24 25 17 9 9 15 6 10 14 14 6 11 11 8 3 1 2 5 2 2 9 12 11 19
22 19 17 17 20 23 23 23 20 16 19 22 24 15 9 11 17 19 23 21 28 33 30 28 31 33 22 16 6 6 3 4 4 10 5 3 8 5 5 5 10 2 1 6 7 7 6
23 24 22 22 25 26 25 25 23 23 22 22 25 27 15 14 9 23 25 27 20 15 5 16 7 21 28 6 5 10 11 12 11 7 8 14 12 5 4 4 8 6 5 6 8 10 15
16 15 14 12 17 19 21 24 24 24 25 20 15 13 23 13 15 10 11 8 15 5 5 2 9 7 12 5 7 7 8 9 13 19 11 6 5 7 5 3 13 14 17 0 5 6 12
10 13 13 13 16 16 18 21 20 17 17 18 15 11 13 13 29 42 19 17 21 17 5 7 4 6 6 6 7 7 6 9 7 9 13 14 13 7 5 3 10 20 4 11 8 8 17
11 10 12 15 18 16 16 17 18 15 14 11 11 15 13 17 23 37 48 58 52 46 32 23 8 10 16 6 5 4 4 4 10 8 3 7 11 11 16 11 7 22 13 21 5 18 16
Wind_Direction_500mb
343 348 346 347 346 349 345 341 341 341 341 340 340 341 341 342 343 342 340 333 325 321 321 322 317 306 308 296 261 215 224 248 251 230 221 201 176 165 190 195 185 202 242 262 269 284 287
325 339 346 346 347 347 342 333 330 332 335 337 337 340 345 347 344 343 343 334 326 322 321 321 316 304 294 261 236 217 213 225 251 237 223 205 208 202 193 207 191 205 245 264 279 271 261
316 325 334 337 336 336 334 333 330 325 328 338 339 339 342 343 343 343 345 338 330 323 321 321 315 300 279 268 225 210 216 251 273 262 250 218 185 186 162 310 304 307 314 328 268 277 265
315 316 326 331 330 332 332 330 328 331 331 335 336 338 340 341 341 343 347 342 334 327 322 318 311 298 256 237 211 215 228 266 278 247 227 251 209 243 238 356 8 331 41 328 328 351 3
317 313 319 323 326 328 327 326 326 328 331 332 333 333 336 341 340 341 348 347 340 330 330 323 315 312 325 173 194 206 212 29 115 186 181 146 173 171 45 51 335 358 270 239 302 348 339
313 309 311 318 322 327 330 330 329 330 332 334 333 336 338 340 342 343 348 352 341 341 7 333 356 334 34 31 173 209 223 276 298 161 136 178 124 81 64 141 251 262 267 278 276 314 306
304 307 306 310 316 322 329 331 328 330 332 338 341 342 340 345 344 347 352 6 17 348 332 286 291 270 270 258 286 251 268 270 212 162 162 45 132 211 221 204 147 94 261 275 258 264 287
295 299 302 304 308 313 319 325 326 323 328 335 338 344 346 349 346 352 355 36 29 331 308 312 326 290 287 267 267 255 247 185 159 178 125 11 247 240 210 186 221 227 266 273 284 268 213
293 296 298 300 306 308 313 318 323 326 329 336 338 340 341 343 344 351 8 17 360 346 296 318 349 10 14 87 49 27 147 146 118 151 188 191 200 103 155 209 226 232 243 248 264 328 258
290 294 295 303 303 305 307 313 315 315 323 328 333 334 339 344 351 351 8 1 345 340 38 284 352 60 31 35 51 104 150 176 78 213 176 231 262 225 196 232 193 259 232 251 261 292 272
285 289 291 296 301 303 306 311 307 308 316 330 326 329 334 345 344 354 352 344 336 336 341 7 25 77 105 113 188 208 83 181 196 193 132 252 213 204 218 221 163 238 2 259 248 235 310
279 289 289 286 290 296 299 308 312 318 312 312 316 319 323 331 344 343 340 336 325 27 253 10 49 349 358 16 348 316 183 150 127 150 323 245 73 64 238 278 231 311 299 288 69 176 247
278 275 273 279 282 287 265 287 296 306 300 299 305 308 314 314 320 334 3 349 15 181 354 359 346 12 343 302 322 22 14 78 198 127 245 305 212 288 260 269 153 169 140 273 246 215 254
279 280 279 280 279 275 290 266 291 301 294 295 299 302 302 297 294 323 42 52 192 221 251 284 269 269 230 176 212 260 82 256 237 120 153 211 274 176 116 236 201 213 202 190 225 241 298
319 315 304 304 297 286 287 299 303 302 304 297 297 292 288 286 268 194 127 123 218 209 238 314 314 269 299 323 297 326 233 227 217 181 203 183 263 227 14 64 226 168 199 358 40 48 253
306 296 297 309 309 308 307 306 303 302 302 303 299 293 279 270 229 193 128 233 235 211 121 60 243 198 261 280 294 309 251 166 218 210 156 230 279 232 138 336 58 144 134 140 60 239 238
307 305 304 307 307 307 307 304 301 300 295 300 293 295 262 201 188 170 220 237 280 263 252 217 240 272 280 289 231 255 276 264 196 185 164 137 176 168 81 344 183 227 189 66 99 209 252
313 316 317 313 311 309 305 303 301 297 291 275 246 236 192 164 131 203 198 205 263 218 209 245 196 265 271 283 280 266 243 236 176 163 173 186 158 145 115 337 266 331 10 173 213 208 184
320 318 318 321 321 320 319 319 317 314 242 198 245 248 192 183 204 225 266 269 272 239 213 231 265 92 25 269 259 358 322 5 73 121 178 173 86 67 310 163 53 160 162 139 100 59 184
323 326 328 331 332 332 337 340 340 320 270 223 223 307 166 208 239 188 233 243 233 332 302 345 303 142 95 252 227 259 242 331 345 9 44 41 188 214 213 176 126 197 178 172 99 141 216
322 327 334 338 332 330 332 344 345 256 261 239 241 227 182 240 258 229 339 356 288 269 41 324 260 234 241 242 220 215 220 197 238 230 214 185 225 210 245 133 160 220 200 182 192 181 220
327 327 330 326 325 325 333 312 327 357 300 303 358 171 74 238 236 201 188 219 225 258 197 221 236 258 202 221 211 267 204 184 208 201 181 206 172 148 307 4 230 253 242 231 232 229 244
314 317 320 319 319 315 311 307 294 295 316 312 326 34 349 186 177 205 207 212 218 235 228 227 215 229 222 238 232 251 217 179 242 183 173 156 143 142 260 15 322 270 241 202 192 205 191
296 299 310 319 326 329 330 318 306 294 299 300 284 303 253 263 204 207 237 214 252 256 262 273 259 229 244 227 164 28 88 136 130 87 162 147 122 106 203 344 231 297 226 169 204 227 220
284 293 300 309 312 317 322 317 315 318 313 305 298 271 250 274 272 265 255 259 273 268 258 263 267 249 231 153 94 120 201 97 64 43 26 120 128 108 172 208 301 356 186 151 188 276 242
281 284 284 292 300 304 304 308 310 310 310 309 286 264 237 281 244 274 284 271 267 262 225 223 239 186 180 111 159 174 185 196 181 152 53 77 64 112 142 137 225 231 216 91 99 283 207
293 292 292 294 292 296 304 314 320 325 324 326 311 276 250 256 258 272 272 324 317 231 225 153 171 178 163 134 191 185 217 157 166 173 158 120 45 153 168 211 282 245 238 336 208 235 258
274 294 302 316 291 300 309 321 333 336 339 327 317 284 262 251 268 275 232 225 269 259 265 150 141 185 139 178 190 218 189 196 136 134 172 164 149 178 110 127 274 202 102 187 215 294 308
347 311 300 296 299 302 303 312 324 319 328 325 314 303 289 263 268 277 279 274 265 259 263 212 229 170 163 170 231 198 164 158 151 193 92 194 185 179 185 207 252 194 220 195 306 287 306
Wind_Speed_850mb
23 25 25 25 23 25 28 27 24 25 27 30 33 35 38 41 43 47 48 47 46 45 44 41 34 26 21 8 8 11 10 7 6 10 15 18 21 12 5 7 6 9 9 14 21 25 29
24 28 31 31 28 29 32 31 29 29 28 30 33 37 41 44 45 47 49 48 45 44 44 37 31 21 14 5 8 12 11 7 4 8 15 21 14 17 7 10 9 10 13 19 24 31 24
25 26 28 29 27 29 31 32 31 31 29 30 35 38 42 44 47 49 52 52 47 42 36 30 24 17 15 14 11 14 11 6 6 6 11 18 11 9 3 5 7 10 12 14 13 6 5
25 24 27 26 27 29 31 33 32 36 35 35 37 39 44 47 50 53 54 55 53 39 28 24 18 15 5 5 10 12 11 7 8 6 1 4 15 5 4 2 10 9 4 7 9 11 6
26 25 25 26 27 31 30 29 30 32 36 39 38 38 43 47 50 53 53 57 44 36 24 21 16 8 2 2 4 6 5 2 1 5 9 7 9 2 4 5 8 4 12 5 11 8 8
27 25 25 26 28 30 32 31 32 32 34 37 37 37 42 47 48 53 55 57 48 17 24 22 7 7 5 4 2 5 7 7 2 6 8 6 4 5 4 4 10 6 8 5 7 8 19
29 28 27 26 27 28 29 31 31 31 34 35 37 35 37 42 45 49 60 51 44 8 54 16 27 23 34 14 11 10 16 13 9 6 5 4 3 9 19 11 3 1 6 21 14 21 15
31 30 28 28 28 27 28 29 30 31 31 33 36 39 41 42 44 40 45 39 27 21 28 34 17 19 19 29 10 3 5 10 9 8 6 4 11 15 11 9 11 11 13 21 18 17 8
31 31 30 29 30 31 31 31 32 31 31 34 38 40 39 40 33 36 35 35 32 28 11 15 13 11 11 7 4 8 3 7 5 8 9 14 7 7 8 7 12 12 17 11 21 9 10
30 30 29 26 28 31 31 34 34 29 28 32 38 40 38 37 18 30 24 29 32 27 8 9 7 3 4 3 6 4 4 4 1 8 9 8 7 8 8 10 15 13 16 26 16 6 9
31 30 27 26 30 30 33 37 37 29 29 35 41 40 36 31 22 19 19 25 28 13 10 2 3 3 2 3 4 3 3 7 8 8 7 8 2 2 7 7 8 11 7 7 8 8 5
27 29 30 30 28 35 32 32 35 27 30 35 38 34 30 27 22 14 19 21 18 8 13 2 4 7 3 5 4 7 3 4 5 3 3 8 2 2 4 5 5 6 6 1 2 4 16
35 34 34 35 32 36 38 31 34 38 41 39 38 33 33 27 17 11 12 12 9 6 13 7 6 7 3 4 3 6 4 1 7 1 6 3 5 4 1 4 2 3 5 6 9 8 17
36 37 35 35 32 36 41 39 34 41 40 34 33 33 29 29 15 7 5 9 6 7 10 5 4 4 10 4 5 1 2 5 5 6 5 9 20 11 2 3 3 4 8 10 13 9 9
19 22 23 22 25 28 28 29 29 30 32 33 32 31 31 23 16 7 7 5 13 12 4 7 9 5 5 5 4 5 7 9 10 14 15 11 10 1 3 3 2 5 6 5 4 5 7
15 17 19 20 24 25 26 27 25 28 28 33 29 23 26 26 12 13 3 10 10 9 2 5 5 7 5 4 4 4 6 6 7 11 4 3 7 3 3 0 5 5 5 5 5 7 10
20 21 22 25 27 28 29 29 32 31 34 34 16 10 10 17 19 11 6 12 9 13 8 6 7 11 13 15 11 11 10 5 8 7 8 4 4 1 2 2 2 1 3 10 3 6 7
19 21 22 23 25 28 32 34 35 32 30 22 10 3 7 27 6 7 7 8 8 7 7 12 8 15 25 31 35 23 14 8 10 12 9 5 4 3 1 3 7 4 2 5 9 11 2
20 21 22 22 23 26 29 30 30 23 9 11 8 12 17 38 7 6 7 6 9 7 11 6 6 2 3 5 9 5 7 12 5 4 6 8 4 3 9 1 2 3 2 2 7 5 8
21 22 22 22 21 21 23 23 13 8 12 24 7 1 8 24 5 4 4 8 8 5 4 7 2 4 1 6 1 7 6 4 15 7 14 16 4 10 9 4 6 5 7 5 6 4 4
21 21 22 21 18 17 16 17 11 9 14 21 5 1 4 3 8 9 4 8 1 5 0 4 3 13 8 7 6 11 12 6 11 11 7 7 12 12 6 3 4 6 11 16 12 8 12
21 20 21 22 20 20 17 10 10 9 11 13 4 2 4 4 4 3 12 7 9 12 8 8 14 8 17 13 16 8 10 8 8 13 12 6 5 2 5 4 4 16 20 20 23 19 21
30 25 23 22 20 19 19 19 17 14 11 3 4 5 3 9 6 3 9 12 9 4 22 22 17 5 13 31 24 19 21 12 7 10 9 8 9 6 5 4 8 12 15 28 9 9 9
24 20 20 20 19 18 19 19 17 17 18 13 13 14 3 7 7 8 7 12 11 22 23 24 25 17 9 9 15 6 10 14 14 6 11 11 8 3 1 2 5 2 2 9 12 11 19
22 19 17 17 20 23 23 23 20 16 19 22 24 15 9 11 17 19 23 21 28 33 30 28 31 33 22 16 6 6 3 4 4 10 5 3 8 5 5 5 10 2 1 6 7 7 6
23 24 22 22 25 26 25 25 23 23 22 22 25 27 15 14 9 23 25 27 20 15 5 16 7 21 28 6 5 10 11 12 11 7 8 14 12 5 4 4 8 6 5 6 8 10 15
16 15 14 12 17 19 21 24 24 24 25 20 15 13 23 13 15 10 11 8 15 5 5 2 9 7 12 5 7 7 8 9 13 19 11 6 5 7 5 3 13 14 17 0 5 6 12
10 13 13 13 16 16 18 21 20 17 17 18 15 11 13 13 29 42 19 17 21 17 5 7 4 6 6 6 7 7 6 9 7 9 13 14 13 7 5 3 10 20 4 11 8 8 17
11 10 12 15 18 16 16 17 18 15 14 11 11 15 13 17 23 37 48 58 52 46 32 23 8 10 16 6 5 4 4 4 10 8 3 7 11 11 16 11 7 22 13 21 5 18 16
Wind_Direction_850mb
343 348 346 347 346 349 345 341 341 341 341 340 340 341 341 342 343 342 340 333 325 321 321 322 317 306 308 296 261 215 224 248 251 230 221 201 176 165 190 195 185 202 242 262 269 284 287
325 339 346 346 347 347 342 333 330 332 335 337 337 340 345 347 344 343 343 334 326 322 321 321 316 304 294 261 236 217 213 225 251 237 223 205 208 202 193 207 191 205 245 264 279 271 261
316 325 334 337 336 336 334 333 330 325 328 338 339 339 342 343 343 343 345 338 330 323 321 321 315 300 279 268 225 210 216 251 273 262 250 218 185 186 162 310 304 307 314 328 268 277 265
315 316 326 331 330 332 332 330 328 331 331 335 336 338 340 341 341 343 347 342 334 327 322 318 311 298 256 237 211 215 228 266 278 247 227 251 209 243 238 356 8 331 41 328 328 351 3
317 313 319 323 326 328 327 326 326 328 331 332 333 333 336 341 340 341 348 347 340 330 330 323 315 312 325 173 194 206 212 29 115 186 181 146 173 171 45 51 335 358 270 239 302 348 339
313 309 311 318 322 327 330 330 329 330 332 334 333 336 338 340 342 343 348 352 341 341 7 333 356 334 34 31 173 209 223 276 298 161 136 178 124 81 64 141 251 262 267 278 276 314 306
304 307 306 310 316 322 329 331 328 330 332 338 341 342 340 345 344 347 352 6 17 348 332 286 291 270 270 258 286 251 268 270 212 162 162 45 132 211 221 204 147 94 261 275 258 264 287
295 299 302 304 308 313 319 325 326 323 328 335 338 344 346 349 346 352 355 36 29 331 308 312 326 290 287 267 267 255 247 185 159 178 125 11 247 240 210 186 221 227 266 273 284 268 213
293 296 298 300 306 308 313 318 323 326 329 336 338 340 341 343 344 351 8 17 360 346 296 318 349 10 14 87 49 27 147 146 118 151 188 191 200 103 155 209 226 232 243 248 264 328 258
290 294 295 303 303 305 307 313 315 315 323 328 333 334 339 344 351 351 8 1 345 340 38 284 352 60 31 35 51 104 150 176 78 213 176 231 262 225 196 232 193 259 232 251 261 292 272
285 289 291 296 301 303 306 311 307 308 316 330 326 329 334 345 344 354 352 344 336 336 341 7 25 77 105 113 188 208 83 181 196 193 132 252 213 204 218 221 163 238 2 259 248 235 310
279 289 289 286 290 296 299 308 312 318 312 312 316 319 323 331 344 343 340 336 325 27 253 10 49 349 358 16 348 316 183 150 127 150 323 245 73 64 238 278 231 311 299 288 69 176 247
278 275 273 279 282 287 265 287 296 306 300 299 305 308 314 314 320 334 3 349 15 181 354 359 346 12 343 302 322 22 14 78 198 127 245 305 212 288 260 269 153 169 140 273 246 215 254
279 280 279 280 279 275 290 266 291 301 294 295 299 302 302 297 294 323 42 52 192 221 251 284 269 269 230 176 212 260 82 256 237 120 153 211 274 176 116 236 201 213 202 190 225 241 298
319 315 304 304 297 286 287 299 303 302 304 297 297 292 288 286 268 194 127 123 218 209 238 314 314 269 299 323 297 326 233 227 217 181 203 183 263 227 14 64 226 168 199 358 40 48 253
306 296 297 309 309 308 307 306 303 302 302 303 299 293 279 270 229 193 128 233 235 211 121 60 243 198 261 280 294 309 251 166 218 210 156 230 279 232 138 336 58 144 134 140 60 239 238
307 305 304 307 307 307 307 304 301 300 295 300 293 295 262 201 188 170 220 237 280 263 252 217 240 272 280 289 231 255 276 264 196 185 164 137 176 168 81 344 183 227 189 66 99 209 252
313 316 317 313 311 309 305 303 301 297 291 275 246 236 192 164 131 203 198 205 263 218 209 245 196 265 271 283 280 266 243 236 176 163 173 186 158 145 115 337 266 331 10 173 213 208 184
320 318 318 321 321 320 319 319 317 314 242 198 245 248 192 183 204 225 266 269 272 239 213 231 265 92 25 269 259 358 322 5 73 121 178 173 86 67 310 163 53 160 162 139 100 59 184
323 326 328 331 332 332 337 340 340 320 270 223 223 307 166 208 239 188 233 243 233 332 302 345 303 142 95 252 227 259 242 331 345 9 44 41 188 214 213 176 126 197 178 172 99 141 216
322 327 334 338 332 330 332 344 345 256 261 239 241 227 182 240 258 229 339 356 288 269 41 324 260 234 241 242 220 215 220 197 238 230 214 185 225 210 245 133 160 220 200 182 192 181 220
327 327 330 326 325 325 333 312 327 357 300 303 358 171 74 238 236 201 188 219 225 258 197 221 236 258 202 221 211 267 204 184 208 201 181 206 172 148 307 4 230 253 242 231 232 229 244
314 317 320 319 319 315 311 307 294 295 316 312 326 34 349 186 177 205 207 212 218 235 228 227 215 229 222 238 232 251 217 179 242 183 173 156 143 142 260 15 322 270 241 202 192 205 191
296 299 310 319 326 329 330 318 306 294 299 300 284 303 253 263 204 207 237 214 252 256 262 273 259 229 244 227 164 28 88 136 130 87 162 147 122 106 203 344 231 297 226 169 204 227 220
284 293 300 309 312 317 322 317 315 318 313 305 298 271 250 274 272 265 255 259 273 268 258 263 267 249 231 153 94 120 201 97 64 43 26 120 128 108 172 208 301 356 186 151 188 276 242
281 284 284 292 300 304 304 308 310 310 310 309 286 264 237 281 244 274 284 271 267 262 225 223 239 186 180 111 159 174 185 196 181 152 53 77 64 112 142 137 225 231 216 91 99 283 207
293 292 292 294 292 296 304 314 320 325 324 326 311 276 250 256 258 272 272 324 317 231 225 153 171 178 163 134 191 185 217 157 166 173 158 120 45 153 168 211 282 245 238 336 208 235 258
274 294 302 316 291 300 309 321 333 336 339 327 317 284 262 251 268 275 232 225 269 259 265 150 141 185 139 178 190 218 189 196 136 134 172 164 149 178 110 127 274 202 102 187 215 294 308
347 311 300 296 299 302 303 312 324 319 328 325 314 303 289 263 268 277 279 274 265 259 263 212 229 170 163 170 231 198 164 158 151 193 92 194 185 179 185 207 252 194 220 195 306 287 306